Middlebury State AP, Middlebu, VT

9:26 PM EST on November 12, 2019 (GMT -0500)
Middlebury State AP, Middlebu

Weather History for K6B0 - August, 2019

Change the Weather History Date:

Wednesday, August 7, 2019

  Actual Average (KRUT) Record (KRUT)
Temperature  
Mean Temperature 74 °F -  
Max Temperature 82 °F 79 °F 92 °F (1965)
Min Temperature 67 °F 58 °F 44 °F (1951)
Cooling Degree Days 10    
Growing Degree Days 24 (Base 50)    
Moisture  
Dew Point 67 °F    
Average Humidity 80    
Maximum Humidity 98    
Minimum Humidity 60    
Precipitation  
Precipitation 0.34 in - - ()
Sea Level Pressure  
Sea Level Pressure 29.76 in    
Wind  
Wind Speed 4 mph ()    
Max Wind Speed 9 mph    
Max Gust Speed -    
Visibility 8.6 miles    
Events Rain , Thunderstorm    
Averages and records for this station are not official NWS values.
T = Trace of Precipitation, MM = Missing Value Source: Averaged Metar Reports

Daily Weather History Graph

Daily Weather History Graph

Search for Another Location

Airport or City:

Astronomy

Aug. 07, 2019 Rise Set
Actual Time 5:46 AM EDT 8:08 PM EDT
Civil Twilight 5:14 AM EDT 8:40 PM EDT
Nautical Twilight 4:34 AM EDT 9:20 PM EDT
Astronomical Twilight 3:49 AM EDT 10:05 PM EDT
Moon 1:31 PM EDT (8/7) No Moon Set
Length of Visible Light 15h 26m
Length of Day
14h 21m
Waxing Crescent, 49% of the Moon is Illuminated
Aug 7
Waxing Crescent
Aug 7
First Quarter
Aug 15
Full
Aug 23
Last Quarter
Aug 30
New

Hourly Weather History & Observations

Time (EDT) Temp. Heat Index Dew Point Humidity Pressure Visibility Wind Dir Wind Speed Gust Speed Precip Events Conditions
9:50 AM 73.8 °F - 66.4 °F 78% 29.83 in 10.0 mi SSW 8.1 mph - N/A   Scattered Clouds
9:57 AM 74.8 °F - 66.2 °F 74% 29.83 in 10.0 mi SSW 6.9 mph - N/A   Scattered Clouds
10:15 AM 74.5 °F - 65.5 °F 73% 29.82 in 10.0 mi SSW 9.2 mph - N/A   Mostly Cloudy
10:35 AM 74.5 °F - 65.8 °F 74% 29.82 in 10.0 mi South 4.6 mph - N/A   Mostly Cloudy
10:36 AM 74.5 °F - 66.0 °F 75% 29.82 in 10.0 mi South 5.8 mph - N/A   Mostly Cloudy
10:55 AM 75.4 °F - 66.0 °F 73% 29.82 in 10.0 mi SSE 4.6 mph - N/A   Mostly Cloudy
11:19 AM 76.1 °F - 66.6 °F 72% 29.82 in 10.0 mi South 9.2 mph - N/A   Overcast
11:37 AM 75.4 °F - 66.2 °F 73% 29.82 in 10.0 mi SSW 8.1 mph - N/A   Overcast
11:56 AM 75.6 °F - 66.4 °F 73% 29.82 in 10.0 mi SSW 8.1 mph - N/A   Mostly Cloudy
12:15 PM 76.3 °F - 65.8 °F 70% 29.82 in 10.0 mi SSW 6.9 mph - N/A   Mostly Cloudy
12:16 PM 76.3 °F - 65.7 °F 70% 29.81 in 10.0 mi SSW 5.8 mph - N/A   Mostly Cloudy
12:35 PM 75.6 °F - 65.7 °F 71% 29.81 in 10.0 mi South 6.9 mph - N/A   Mostly Cloudy
12:39 PM 75.6 °F - 65.8 °F 72% 29.81 in 10.0 mi South 5.8 mph - N/A   Mostly Cloudy
12:57 PM 75.7 °F - 66.9 °F 74% 29.81 in 10.0 mi South 3.5 mph - N/A   Scattered Clouds
1:15 PM 76.5 °F - 67.5 °F 74% 29.81 in 10.0 mi SSW 3.5 mph - N/A   Light Drizzle
1:35 PM 77.9 °F - 67.1 °F 69% 29.80 in 10.0 mi South 5.8 mph - N/A   Clear
1:36 PM 77.9 °F - 66.9 °F 69% 29.80 in 10.0 mi South 4.6 mph - N/A   Clear
1:55 PM 79.2 °F - 67.1 °F 66% 29.79 in 10.0 mi West 3.5 mph - N/A   Scattered Clouds
1:59 PM 79.0 °F - 66.6 °F 66% 29.79 in 10.0 mi West 3.5 mph - N/A   Scattered Clouds
2:17 PM 79.3 °F - 66.4 °F 64% 29.78 in 10.0 mi SSE 3.5 mph - N/A   Scattered Clouds
2:36 PM 80.1 °F 82.2 °F 66.6 °F 63% 29.78 in 10.0 mi South 4.6 mph - N/A   Mostly Cloudy
2:55 PM 80.6 °F 82.9 °F 66.9 °F 63% 29.76 in 10.0 mi SSW 4.6 mph - N/A   Overcast
3:15 PM 79.9 °F - 66.6 °F 64% 29.76 in 10.0 mi Calm Calm - N/A   Scattered Clouds
3:38 PM 80.8 °F 83.5 °F 67.8 °F 65% 29.75 in 10.0 mi Calm Calm - N/A   Clear
3:56 PM 82.6 °F 85.5 °F 67.8 °F 61% 29.74 in 10.0 mi WSW 4.6 mph - N/A   Clear
4:16 PM 82.2 °F 84.7 °F 66.9 °F 60% 29.74 in 10.0 mi Calm Calm - N/A   Scattered Clouds
4:35 PM 81.9 °F 84.4 °F 67.1 °F 61% 29.73 in 10.0 mi Calm Calm - N/A   Scattered Clouds
4:36 PM 81.7 °F 84.2 °F 67.1 °F 61% 29.73 in 10.0 mi Calm Calm - N/A   Scattered Clouds
4:55 PM 81.5 °F 83.9 °F 66.7 °F 61% 29.73 in 10.0 mi Calm Calm - N/A   Clear
4:59 PM 81.5 °F 83.7 °F 66.4 °F 60% 29.73 in 10.0 mi Calm Calm - N/A   Clear
5:17 PM 78.1 °F - 69.6 °F 75% 29.73 in 10.0 mi Calm Calm - N/A   Scattered Clouds
5:35 PM 77.0 °F - 72.0 °F 84% 29.73 in 10.0 mi Calm Calm - N/A   Scattered Clouds
5:55 PM 75.9 °F - 71.4 °F 86% 29.73 in 10.0 mi South 5.8 mph - N/A   Scattered Clouds
5:56 PM 75.9 °F - 71.2 °F 85% 29.73 in 10.0 mi SSE 5.8 mph - N/A   Scattered Clouds
6:15 PM 73.0 °F - 69.8 °F 90% 29.74 in 4.0 mi SE 3.5 mph - 0.06 in Rain Heavy Rain
6:16 PM 72.9 °F - 69.8 °F 90% 29.74 in 4.0 mi SSE 4.6 mph - 0.06 in Rain Heavy Rain
6:39 PM 71.6 °F - 68.2 °F 89% 29.73 in 10.0 mi ESE 3.5 mph - 0.11 in Thunderstorm Overcast
6:57 PM 72.0 °F - 66.6 °F 83% 29.73 in 10.0 mi ESE 9.2 mph - 0.11 in   Mostly Cloudy
7:16 PM 72.1 °F - 66.6 °F 83% 29.72 in 10.0 mi ESE 6.9 mph - N/A Thunderstorm Mostly Cloudy
7:35 PM 71.8 °F - 67.8 °F 87% 29.74 in 10.0 mi NNE 4.6 mph - N/A Thunderstorm Overcast
7:36 PM 71.8 °F - 67.6 °F 87% 29.74 in 10.0 mi ENE 5.8 mph - N/A Thunderstorm Overcast
7:58 PM 71.1 °F - 68.0 °F 90% 29.72 in 10.0 mi NNE 3.5 mph - N/A Thunderstorm Thunderstorm
8:16 PM 70.7 °F - 68.0 °F 91% 29.76 in 7.0 mi SSW 3.5 mph - 0.01 in   Overcast
8:36 PM 68.0 °F - 65.5 °F 92% 29.75 in 1.8 mi ENE 3.5 mph - 0.20 in Rain Rain
8:55 PM 67.6 °F - 66.2 °F 95% 29.76 in 7.0 mi Calm Calm - 0.23 in Rain Rain
8:56 PM 67.6 °F - 66.2 °F 95% 29.76 in 7.0 mi Calm Calm - 0.23 in Rain Rain
9:15 PM 67.5 °F - 66.6 °F 97% 29.76 in 10.0 mi Calm Calm - N/A   Overcast
9:19 PM 67.5 °F - 66.6 °F 97% 29.76 in 7.0 mi Calm Calm - N/A   Overcast
9:37 PM 67.5 °F - 66.7 °F 98% 29.75 in 5.0 mi Calm Calm - N/A   Overcast
9:55 PM 67.6 °F - 66.9 °F 98% 29.75 in 7.0 mi Calm Calm - N/A   Overcast
10:15 PM 67.5 °F - 66.7 °F 98% 29.74 in 4.0 mi Calm Calm - N/A   Mostly Cloudy
10:16 PM 67.5 °F - 66.7 °F 98% 29.74 in 4.0 mi Calm Calm - N/A   Mostly Cloudy
10:35 PM 68.0 °F - 67.1 °F 97% 29.74 in 7.0 mi Calm Calm - N/A   Mostly Cloudy
10:36 PM 68.0 °F - 67.1 °F 97% 29.74 in 7.0 mi Calm Calm - N/A   Mostly Cloudy
10:59 PM 68.2 °F - 67.5 °F 98% 29.73 in 7.0 mi SE 3.5 mph - N/A   Mostly Cloudy
11:16 PM 68.2 °F - 67.5 °F 98% 29.72 in 5.0 mi Calm Calm - N/A   Overcast
11:36 PM 68.0 °F - 67.3 °F 98% 29.71 in 7.0 mi Calm Calm - N/A   Overcast
11:55 PM 68.0 °F - 67.5 °F 98% 29.71 in 4.0 mi ESE 3.5 mph - N/A   Overcast
11:56 PM 68.0 °F - 67.3 °F 98% 29.71 in 4.0 mi SE 3.5 mph - N/A   Overcast